This demonstration page uses our WeatherBlox Daily Observations layout. Learn more.

38.89511, -77.03637

Hourly Observations for January 30, 2015

Temp ( °F °C ) Dew Point ( °F °C ) Humidity (%) Winds ( mph kmh ) Pressure ( in mb ) Visibility ( mi km ) Precip ( " mm )
12:52 am 00:52 Cloudy 41 5 22 -5.6 47 47 Calm 29.93 1013 10 16.0934 0 0
1:52 am 01:52 Cloudy 38 3.3 27 -2.8 65 65 NNW 6 9 29.93 1014 10 16.0934 0 0
2:52 am 02:52 Cloudy 40 4.4 25 -3.9 55 55 Calm 29.93 1014 10 16.0934 0 0
3:52 am 03:52 Cloudy 41 5 25 -3.9 53 53 undefined N/A 29.93 1014 10 16.0934 0 0
4:52 am 04:52 Cloudy 42 5.6 28 -2.2 58 58 NW 10 17 29.93 1014 10 16.0934 0 0
5:52 am 05:52 Partly Cloudy 42 5.6 27 -2.8 55 55 WNW 10 17 29.95 1014 10 16.0934 0 0
6:52 am 06:52 Partly Cloudy 40 4.4 23 -5 51 51 NW 15 24 29.98 1015 10 16.0934 0 0
7:52 am 07:52 Mostly Cloudy 40 4.4 22 -5.6 49 49 NW 13 20 30 1016 10 16.0934 0 0
8:52 am 08:52 Mostly Cloudy 41 5 23 -5 49 49 NW 9 15 30.02 1017 10 16.0934 0 0
9:52 am 09:52 Mostly Cloudy 42 5.6 24 -4.4 49 49 NW 15 24 30.03 1017 7 11.26538 0 0
9:57 am 09:57 Mostly Cloudy with Scattered Snow Showers 41 5 25 -4 53 53 NNW 17 28 30.03 1017 4 6.43736 0 0.0254
10:23 am 10:23 Windy with Snow Likely 39 4 27 -3 61 61 WNW 21 33 30.06 1018 2.5 4.02335 0 0.0254
10:34 am 10:34 Mostly Cloudy with Scattered Snow Showers 37 3 28 -2 70 70 NNW 18 30 30.06 1018 4 6.43736 0 0
10:41 am 10:41 Mostly Cloudy 39 4 28 -2 65 65 NW 14 22 30.06 1018 10 16.0934 0 0.0254
10:52 am 10:52 Mostly Cloudy 40 4.4 29 -1.7 65 65 NW 15 24 30.05 1018 10 16.0934 0 0.0254
11:26 am 11:26 Mostly Cloudy with Scattered Snow Showers 41 5 25 -4 53 53 NW 22 35 30.06 1018 2.5 4.02335 0 0
11:30 am 11:30 Mostly Cloudy with Scattered Snow Showers 39 4 25 -4 56 56 NW 29 46 30.06 1018 4 6.43736 0 0
11:38 am 11:38 Mostly Cloudy 37 3 25 -4 60 60 NW 18 30 30.06 1018 10 16.0934 0 0
11:52 am 11:52 Mostly Cloudy 40 4.4 21 -6.1 47 47 NW 16 26 30.05 1018 10 16.0934 0 0.0254
12:52 pm 12:52 Partly Cloudy 43 6.1 13 -10.6 29 29 WNW 15 24 30.04 1017 10 16.0934 0 0
1:52 pm 13:52 Mostly Cloudy 42 5.6 14 -10 32 32 NNW 26 43 30.05 1018 10 16.0934 0 0
2:52 pm 14:52 Mostly Cloudy 40 4.4 13 -10.6 33 33 NW 22 35 30.07 1018 10 16.0934 0 0
3:52 pm 15:52 Partly Cloudy 38 3.3 14 -10 37 37 NNW 24 39 30.11 1020 10 16.0934 0 0
4:52 pm 16:52 Mostly Sunny 36 2.2 12 -11.1 37 37 NW 21 33 30.14 1021 10 16.0934 0 0
5:52 pm 17:52 Mostly Clear 33 0.6 10 -12.2 38 38 NNW 24 39 30.18 1022 10 16.0934 0 0
6:52 pm 18:52 Mostly Clear 30 -1.1 8 -13.3 39 39 NW 25 41 30.2 1023 10 16.0934 0 0
7:52 pm 19:52 Clear 28 -2.2 6 -14.4 39 39 NW 22 35 30.23 1024 10 16.0934 0 0
8:52 pm 20:52 Mostly Clear 27 -2.8 6 -14.4 41 41 NW 20 31 30.25 1025 10 16.0934 0 0
9:52 pm 21:52 Clear 25 -3.9 4 -15.6 40 40 NW 17 28 30.26 1025 10 16.0934 0 0
10:52 pm 22:52 Clear 24 -4.4 4 -15.6 42 42 NW 15 24 30.27 1025 10 16.0934 0 0
11:52 pm 23:52 Clear 23 -5 3 -16.1 42 42 NW 15 24 30.27 1025 10 16.0934 0 0

Powered by AerisWeather